Weather Roundup
Issued by NWS Springfield, MO

Home | Current Version | Previous Version | Text Only | Print | Product List | Glossary On
Versions: 1 2 3 4 5 6 7 8 9 10 11 12 13 14 15 16 17 18 19 20 21 22 23 24 25 26 27 28 29 30 31 32 33 34 35 36 37 38 39 40 41 42 43 44 45 46 47 48 49 50
000
NZUS99 KSGF 041107
HRRSGF

HOURLY WEATHER
NATIONAL WEATHER SERVICE SPRINGFIELD MO
500 AM CST WED MAR 04 2015

......SGF CWA......

CITY           SKY/WX    TMP DP  RH WIND       PRES   REMARKS
SPRINGFIELD    CLOUDY    33  29  85 N15       30.00R WCI  23
JOPLIN         CLOUDY    32  27  81 N14G25    30.04R HAZE    WCI  22
WEST PLAINS    CLOUDY    35  33  92 N13       29.95R WCI  26
ROLLA          CLOUDY    31  28  89 N13       30.00R WCI  21
OSAGE BEACH    CLOUDY    30  27  86 NW9       30.04R WCI  22

......SURROUNDING SGF CWA......

CITY           SKY/WX    TMP DP  RH WIND       PRES   REMARKS
CHANUTE        CLOUDY    24  17  74 N17G31    30.10R WCI  11
PARSONS        CLOUDY    30  21  69 N13G26    30.08S WCI  20
COFFEYVILLE    CLOUDY    30  21  69 N24G33    30.07R WCI  16
EMPORIA        LGT SNOW  19  12  74 N17       30.17R WCI   4
GROVE OK       CLOUDY    36  34  93 N8        30.03R WCI  29
ROGERS AR      LGT RAIN  34  33  96 N12       29.98R FOG     WCI  25
SILOAM SPRINGS CLOUDY    36  30  80 NE14      29.97R WCI  27
HARRISON AR    RAIN      37  37 100 N10       29.95R FOG     WCI  30
NEAR YELLVILLE CLOUDY    39  36  87 N12       29.94R WCI  32

......KANSAS AND MISSOURI......

CITY           SKY/WX    TMP DP  RH WIND       PRES   REMARKS
KANSAS CTY INT CLOUDY    19   6  57 N15       30.18R WCI   5
DOWNTOWN KC    CLOUDY    22   6  50 N12G21    30.21R WCI  10
COLUMBIA       CLOUDY    26  18  71 N23G30    30.07R WCI  11
SEDALIA        CLOUDY    27  20  75 N22       30.13R WCI  13
ST JOSEPH      CLOUDY    19   6  57 N14       30.22R WCI   6
ST LOUIS       FLURRIES  32  24  72 N15G22    30.03R WCI  22
SPIRIT OF STL  CLOUDY    30  22  72 N17       30.03R WCI  18
WICHITA        LGT SNOW  21  16  81 N18       30.15R WCI   6
TOPEKA         CLOUDY    21   6  52 N17G25    30.22R WCI   7
OLATHE         CLOUDY    21   3  45 N21       30.16R WCI   5

......TENNESSEE......

CITY           SKY/WX    TMP DP  RH WIND       PRES   REMARKS
MEMPHIS        CLOUDY    59  57  93 NW12      29.86R FOG
NASHVILLE      LGT RAIN  52  50  93 NW13      29.89R

......ARKANSAS.......

CITY           SKY/WX    TMP DP  RH WIND       PRES   REMARKS
FAYETTEVILLE   MIX PCPN  37  37 100 N8        29.94R FOG     WCI  31
FT SMITH       LGT RAIN  46  44  93 W7        29.89R FOG
LITTLE ROCK    LGT RAIN  52  50  93 CALM      29.88R VSB 1/2

......OKLAHOMA.......

CITY           SKY/WX    TMP DP  RH WIND       PRES   REMARKS
TULSA          LGT RAIN  34  32  92 N20G29    30.02R FOG     WCI  23
PONCA CITY     CLOUDY    30  19  63 N24       30.08R WCI  16
MCALESTER      LGT RAIN  42  39  89 N10G22    29.93R FOG
OKLAHOMA CITY  CLOUDY    36  27  69 N21G26    29.97R WCI  25

......IOWA............

CITY           SKY/WX    TMP DP  RH WIND       PRES   REMARKS
DES MOINES     PTCLDY    14   0  53 N12       30.19R WCI   0
QUAD CITIES    CLEAR     11   1  64 NW18G24   30.12R WCI  -7

......ILLINOIS........

CITY           SKY/WX    TMP DP  RH WIND       PRES   REMARKS
QUINCY         CLEAR     16   7  67 N13       30.10S WCI   2
CHICAGO        MOCLDY    20  14  77 W14       29.97R WCI   7



USA.gov is the U.S. government's official web portal to all federal, state and local government web resources and services.